Galesburg, IL

6:07 AM CDT on August 22, 2019 (GMT -0500)
Galesburg Municipal

Weather History for KGBG - May, 2019

Change the Weather History Date:

Tuesday, May 14, 2019

  Actual Average Record
Temperature  
Mean Temperature 52 °F -  
Max Temperature 63 °F 72 °F 89 °F (1991)
Min Temperature 41 °F 49 °F 36 °F (1981)
Degree Days  
Heating Degree Days 13    
Growing Degree Days 2 (Base 50)    
Moisture  
Dew Point 46 °F    
Average Humidity 77    
Maximum Humidity 99    
Minimum Humidity 49    
Precipitation  
Precipitation 0.01 in - - ()
Sea Level Pressure  
Sea Level Pressure 30.02 in    
Wind  
Wind Speed 3 mph (SSE)    
Max Wind Speed 14 mph    
Max Gust Speed -    
Visibility 10 miles    
Events Rain    
Averages and records for this station are not official NWS values.
T = Trace of Precipitation, MM = Missing Value Source: NWS Daily Summary

Daily Weather History Graph

Daily Weather History Graph

Search for Another Location

Airport or City:

Astronomy

May. 14, 2019 Rise Set
Actual Time 5:45 AM CDT 8:11 PM CDT
Civil Twilight 5:14 AM CDT 8:42 PM CDT
Nautical Twilight 4:35 AM CDT 9:21 PM CDT
Astronomical Twilight 3:52 AM CDT 10:04 PM CDT
Moon 3:30 PM CDT (5/14) 3:41 AM CDT (5/14)
Length of Visible Light 15h 28m
Length of Day
14h 26m
Waxing Gibbous, 79% of the Moon is Illuminated
May 14
Waxing Gibbous
May 18
Full
May 26
Last Quarter
Jun 3
New
Jun 10
First Quarter

Hourly Weather History & Observations

Time (CDT) Temp. Dew Point Humidity Pressure Visibility Wind Dir Wind Speed Gust Speed Precip Events Conditions
12:15 AM 52.5 °F 40.3 °F 63% 30.02 in 10.0 mi WSW 3.5 mph - N/A   Clear
12:35 AM 48.7 °F 40.5 °F 73% 30.02 in 10.0 mi Calm Calm - N/A   Clear
12:55 AM 46.0 °F 41.0 °F 83% 30.02 in 10.0 mi Calm Calm - N/A   Clear
1:15 AM 45.9 °F 41.4 °F 84% 30.01 in 10.0 mi Calm Calm - N/A   Clear
1:35 AM 44.6 °F 41.0 °F 87% 30.01 in 10.0 mi Calm Calm - N/A   Clear
1:55 AM 44.8 °F 42.1 °F 90% 30.01 in 10.0 mi Calm Calm - N/A   Clear
2:15 AM 43.2 °F 41.0 °F 92% 30.01 in 10.0 mi Calm Calm - N/A   Clear
2:35 AM 44.6 °F 42.8 °F 93% 30.01 in 10.0 mi Calm Calm - N/A   Clear
2:55 AM 43.9 °F 41.9 °F 93% 30.01 in 10.0 mi Calm Calm - N/A   Clear
3:15 AM 43.2 °F 42.1 °F 96% 30.02 in 10.0 mi Calm Calm - N/A   Clear
3:35 AM 42.8 °F 41.0 °F 93% 30.02 in 10.0 mi Calm Calm - N/A   Clear
3:55 AM 42.4 °F 41.2 °F 95% 30.02 in 10.0 mi Calm Calm - N/A   Clear
4:15 AM 41.4 °F 40.3 °F 96% 30.02 in 10.0 mi Calm Calm - N/A   Clear
4:35 AM 42.6 °F 42.1 °F 98% 30.02 in 10.0 mi Calm Calm - N/A   Clear
5:15 AM 41.5 °F 41.0 °F 98% 30.03 in 10.0 mi Calm Calm - N/A   Clear
5:35 AM 41.2 °F 41.0 °F 99% 30.04 in 10.0 mi Calm Calm - N/A   Clear
5:55 AM 42.1 °F 41.9 °F 99% 30.05 in 10.0 mi Calm Calm - N/A   Clear
6:15 AM 41.0 °F 40.5 °F 98% 30.05 in 10.0 mi Calm Calm - N/A   Clear
6:35 AM 43.2 °F 41.9 °F 95% 30.05 in 10.0 mi Calm Calm - N/A   Clear
7:15 AM 50.5 °F 43.5 °F 77% 30.06 in 10.0 mi Calm Calm - N/A   Clear
7:35 AM 52.0 °F 44.1 °F 74% 30.05 in 10.0 mi Calm Calm - N/A   Clear
7:55 AM 53.1 °F 44.6 °F 73% 30.05 in 10.0 mi Calm Calm - N/A   Clear
8:15 AM 53.6 °F 43.9 °F 70% 30.05 in 10.0 mi East 3.5 mph - N/A   Clear
8:35 AM 55.0 °F 44.8 °F 68% 30.05 in 10.0 mi WSW 4.6 mph - N/A   Clear
8:55 AM 55.8 °F 44.6 °F 66% 30.05 in 10.0 mi WSW 4.6 mph - N/A   Clear
9:15 AM 56.3 °F 45.5 °F 67% 30.05 in 10.0 mi WSW 5.8 mph - N/A   Clear
9:35 AM 58.6 °F 45.9 °F 63% 30.05 in 10.0 mi SW 5.8 mph - N/A   Clear
9:55 AM 60.3 °F 46.2 °F 60% 30.05 in 10.0 mi WSW 6.9 mph - N/A   Clear
10:15 AM 62.1 °F 47.5 °F 59% 30.04 in 10.0 mi SSW 5.8 mph - N/A   Clear
10:35 AM 63.1 °F 46.0 °F 54% 30.05 in 10.0 mi WSW 8.1 mph - N/A   Clear
10:55 AM 62.8 °F 43.9 °F 50% 30.05 in 10.0 mi SW 8.1 mph - N/A   Scattered Clouds
11:15 AM 62.6 °F 43.3 °F 49% 30.05 in 10.0 mi ESE 6.9 mph - N/A   Clear
11:35 AM 63.0 °F 44.2 °F 50% 30.05 in 10.0 mi WSW 8.1 mph - N/A   Clear
11:55 AM 63.0 °F 44.1 °F 50% 30.05 in 10.0 mi WSW 9.2 mph - N/A   Scattered Clouds
12:15 PM 62.8 °F 44.8 °F 52% 30.06 in 10.0 mi WSW 6.9 mph - N/A   Overcast
12:35 PM 62.6 °F 45.0 °F 52% 30.06 in 10.0 mi WSW 5.8 mph - N/A   Mostly Cloudy
12:55 PM 62.2 °F 46.6 °F 57% 30.05 in 10.0 mi SW 9.2 mph - N/A   Overcast
1:15 PM 60.1 °F 48.0 °F 64% 30.05 in 10.0 mi SW 13.8 mph - N/A   Mostly Cloudy
1:35 PM 58.8 °F 49.5 °F 71% 30.05 in 10.0 mi SW 8.1 mph - N/A   Light Drizzle
1:55 PM 58.8 °F 51.1 °F 75% 30.04 in 10.0 mi WSW 10.4 mph - N/A Rain Light Rain
2:15 PM 58.8 °F 50.0 °F 73% 30.04 in 10.0 mi WSW 9.2 mph - N/A   Light Drizzle
2:35 PM 60.3 °F 51.1 °F 72% 30.03 in 10.0 mi WSW 11.5 mph - N/A   Clear
2:55 PM 58.8 °F 49.5 °F 71% 30.03 in 10.0 mi South 10.4 mph - N/A Rain Light Rain
3:15 PM 59.4 °F 49.6 °F 70% 30.02 in 10.0 mi SSE 9.2 mph - N/A   Overcast
3:35 PM 59.2 °F 49.1 °F 69% 30.01 in 10.0 mi ESE 9.2 mph - N/A Rain Light Rain
3:55 PM 57.9 °F 49.3 °F 73% 30.01 in 10.0 mi South 6.9 mph - N/A Rain Light Rain
4:15 PM 57.2 °F 50.2 °F 77% 30.00 in 10.0 mi East 4.6 mph - N/A   Light Drizzle
4:35 PM 56.8 °F 49.8 °F 77% 30.00 in 10.0 mi ESE 3.5 mph - N/A   Overcast
4:55 PM 57.2 °F 50.0 °F 77% 29.99 in 10.0 mi East 3.5 mph - N/A   Overcast
5:15 PM 57.2 °F 49.6 °F 76% 29.98 in 10.0 mi ESE 3.5 mph - N/A   Overcast
5:35 PM 57.2 °F 49.3 °F 75% 29.98 in 10.0 mi Calm Calm - N/A   Overcast
5:55 PM 57.4 °F 49.8 °F 76% 29.98 in 10.0 mi Calm Calm - N/A   Overcast
6:15 PM 58.1 °F 50.0 °F 74% 29.98 in 10.0 mi ESE 3.5 mph - N/A   Overcast
6:35 PM 57.7 °F 50.0 °F 75% 29.99 in 10.0 mi Calm Calm - N/A   Overcast
6:55 PM 57.2 °F 50.0 °F 77% 29.99 in 10.0 mi Calm Calm - 0.01 in Rain Rain
7:15 PM 56.1 °F 52.0 °F 86% 29.99 in 10.0 mi Calm Calm - N/A   Overcast
7:35 PM 56.3 °F 51.8 °F 85% 29.99 in 10.0 mi Calm Calm - N/A   Overcast
7:55 PM 55.9 °F 51.6 °F 85% 29.99 in 10.0 mi East 3.5 mph - N/A   Overcast
8:15 PM 55.8 °F 51.3 °F 85% 29.99 in 10.0 mi East 4.6 mph - N/A Rain Rain
8:35 PM 55.4 °F 51.3 °F 86% 29.99 in 10.0 mi ENE 3.5 mph - N/A   Overcast
8:55 PM 55.0 °F 51.6 °F 88% 29.99 in 10.0 mi East 3.5 mph - N/A   Overcast
9:15 PM 55.6 °F 50.5 °F 83% 29.99 in 10.0 mi East 4.6 mph - N/A   Overcast
9:35 PM 55.6 °F 50.9 °F 84% 29.99 in 10.0 mi East 3.5 mph - N/A   Overcast
9:55 PM 55.6 °F 50.9 °F 84% 29.99 in 10.0 mi East 4.6 mph - N/A   Overcast
10:15 PM 55.6 °F 50.9 °F 84% 29.99 in 10.0 mi ESE 4.6 mph - N/A   Overcast
10:35 PM 55.8 °F 50.5 °F 83% 29.99 in 10.0 mi East 5.8 mph - N/A   Overcast
10:55 PM 55.4 °F 50.9 °F 85% 29.98 in 10.0 mi ESE 4.6 mph - N/A   Overcast
11:15 PM 55.8 °F 50.2 °F 82% 29.98 in 10.0 mi ESE 3.5 mph - N/A   Overcast
11:35 PM 55.6 °F 50.4 °F 83% 29.98 in 10.0 mi ESE 3.5 mph - N/A   Overcast
11:55 PM 55.4 °F 50.5 °F 84% 29.97 in 10.0 mi ESE 3.5 mph - N/A   Overcast